Hourly Data Report for September 19, 2017

All times are specified in Local Standard Time (LST). Add 1 hour to adjust for Daylight Saving Time where and when it is observed.

QIKIQTARJUAQ A
NUNAVUT

67°32'48.000" N
64°01'54.000" W
5.50 m
2400577
YVM

Download Data

Hourly Data (September 2017)
Hourly Data Report for September 19, 2017
Temp Definition
°C
Dew Point Temp Definition
°C
Rel Hum Definition
%
Wind Dir Definition
10's deg

Wind Spd Definition
km/h
Visibility Definition
km
Stn Press Definition
kPa
Hmdx Definition


Wind Chill Definition


Weather Definition


TIME
00:00 Legend Double Dagger 5.1 -0.3 68 LegendMM 5 16.1 101.23     LegendNANA
01:00 Legend Double Dagger 4.5 -0.1 72 20 18 16.1 101.26     LegendNANA
02:00 Legend Double Dagger 3.7 -0.6 73 16 9 16.1 101.30     LegendNANA
03:00 Legend Double Dagger 4.4 -0.6 70 19 5 16.1 101.34     LegendNANA
04:00 Legend Double Dagger 2.6 -0.5 80   0 16.1 101.36     LegendNANA
05:00 Legend Double Dagger 2.4 -0.5 81   0 16.1 101.40     LegendNANA
06:00 Legend Double Dagger 1.9 -0.5 84   0 16.1 101.42     LegendNANA
07:00 Legend Double Dagger 2.5 0.1 84 6 13 16.1 101.48     LegendNANA
08:00 Legend Double Dagger 4.2 0.8 78 7 11 16.1 101.51     LegendNANA
09:00 Legend Double Dagger 5.6 1.6 75 6 11 16.1 101.52     LegendNANA
10:00 Legend Double Dagger 5.8 2.2 78 5 13 16.1 101.54     LegendNANA
11:00 Legend Double Dagger 3.8 1.7 86 36 21 16.1 101.58     LegendNANA
12:00 Legend Double Dagger 4.0 1.7 85 35 13 16.1 101.60     LegendNANA
13:00 Legend Double Dagger 4.1 1.6 84 35 9 16.1 101.62     LegendNANA
14:00 Legend Double Dagger 4.8 1.7 80 2 5 16.1 101.63     LegendNANA
15:00 Legend Double Dagger 3.4 1.7 89 1 5 16.1 101.66     LegendNANA
16:00 Legend Double Dagger 3.5 1.7 88 25 4 16.1 101.68     LegendNANA
17:00 Legend Double Dagger 4.0 1.9 86 22 4 16.1 101.71     LegendNANA
18:00 Legend Double Dagger 3.6 2.0 89 6 5 16.1 101.73     LegendNANA
19:00 Legend Double Dagger 2.2 1.9 98 1 11 16.1 101.80     LegendNANA
20:00 Legend Double Dagger 2.0 2.0 100 2 9 1.6 101.82     Fog
21:00 Legend Double Dagger 1.9 1.9 100 1 13 16.1 101.84     LegendNANA
22:00 Legend Double Dagger 1.9 1.9 100 1 17 16.1 101.89     Rain
23:00 Legend Double Dagger 1.9 1.9 100 2 17 1.2 101.89     Rain,Fog

Notes on Data Quality.

Legend

  • E = Estimated
  • M = Missing
  • NA = Not Available
  • ‡ = Partner data that is not subject to review by the National Climate Archives
Date modified: